ATLAS D DEB, 2337

Orbit data source: Space-Track

ATLAS D DEB, 2337 is space debris in LEO originally from a launch on Thu, 14 Jul 1966 UTC launched from the Air Force Western Test Range (AFWTR). Debris objects in space refer to the collection of defunct objects orbiting the Earth. Examples of debris include non-operational satellites, rocket bodies, and fragments generated from explosions, collisions, or faulty payload assembly.

Loading next visibility...
Identifier
2337, 1966-063E
Orbit
LEO
Country
Flag of USUS
Related business
Manufacturer
Unknown
Mission
Spacecraft
Bus & Motor
Unknown
Mass
9 kg wet, 9 kg dry
Launch date (UTC)
1966-07-14 (59 years ago)
Launch vehicle
Unknown
Launch site
Air Force Western Test Range (AFWTR)
Object type
Payload
Rocket body
Debris
Shape & HBR
Trunc Cone, 0.3 m
Radar Cross Section
0.700 m², Medium (>0.1 m² and < 1m²)

Expand to show TLE details & history
Last TLE update: 13 hours ago

TLE from 13 hours ago
0 ATLAS D DEB
1 02337U 66063E   25242.12499395  .00000379  00000-0  14170-3 0  9998
2 02337 144.2302 207.9827 0005562 184.3023 192.3141 13.72220851962073
Epoch: 2025-08-30T02:59Z
TLE epoch observation values (Epoch: 2025-08-30T02:59:59.477Z)
Latitude
9.62918°
Longitude
170.87185°
Altitude
993.936 km
Speed
7.355 km/s
True Right ascension
12h 57m 44s
True Declination
9° 34' 28"
Sunlit
Object was in daylight at epoch
Visualization orbit readout
Latitude
Unknown
Longitude
Unknown
Altitude
Unknown
Speed
Unknown
Apparent Right ascension
Unknown
Apparent Declination
Unknown
Sunlit
N/A
Visualization observer readout
Local Sidereal Time
07:57:07
Azimuth
Unknown
Elevation
Unknown
Doppler factor
Unknown
Orbital elements
Apogee altitude
998.628 km
Perigee altitude
990.427 km
Semi-major axis
7,372.664 km
Eccentricity
0.00056
Inclination
144.2302°
RAAN
207.9827°
Arg. of periapsis
184.3023°
True anomaly
192.30052°
Mean anomaly
192.3141°
Eccentric anomaly
192.30731°
Mean motion
3.42852 °/min
Orbital period
105 mins
BSTAR
0.0001417
Loading maneuver chart data...
Computing Atmospheric mass density...
Loading historical data...
Loading historical data...
Loading historical data...
Loading historical data...
Loading historical data...
Loading historical data...
Loading historical data...

Documentation

Showing up to 5 results
|